{"data":{"norad_id":48360,"epoch":"2026-05-24T23:58:14.059776Z","epoch_age_seconds":85222,"freshness":"FRESH","line1":"1 48360U 21038H   26144.99877384  .00001345  00000+0  55090-4 0  9992","line2":"2 48360  53.1618   3.2371 0001275  91.7369 268.3779 15.31705748278766","mean_motion":15.31705748,"eccentricity":0.0001275,"inclination_deg":53.1618,"raan_deg":3.2371,"arg_perigee_deg":91.7369,"mean_anomaly_deg":268.3779,"bstar":5.509e-5,"rev_number":27876,"period_min":94.012835159772,"perigee_km":469.84963115808,"apogee_km":471.59609042258,"semimajor_km":6848.8598607903,"source":"CELESTRAK","updated_at":"2026-05-25T13:38:16.685709Z"}}